Saint Bonnet de Bellac- Haute Vienne - France
Donnes mto: dimanche, 07/10/2012
Date Horaire Temp. E. Hum. E. P.atmo. Pluie Vent Direction Direction Ensoleilleme Solaire P. de rose Temp au vent Rafales
07/10/2012 00:00 15,2 C 92 % 1015,8 hPa 0,0 mm 4,7 km/h (1 Bft) S 180 0 min 0 W/m 13,9 C 15,2 C 6,8 km/h (2 Bft)
07/10/2012 00:10 15,3 C 92 % 1015,7 hPa 0,0 mm 8,3 km/h (2 Bft) SO 225 0 min 0 W/m 14,0 C 15,3 C 14,0 km/h (3 Bft)
07/10/2012 00:20 15,3 C 92 % 1015,6 hPa 0,1 mm 8,3 km/h (2 Bft) S-SO 202 0 min 0 W/m 14,0 C 15,3 C 13,3 km/h (3 Bft)
07/10/2012 00:30 15,4 C 92 % 1015,6 hPa 0,0 mm 13,3 km/h (3 Bft) SO 225 0 min 0 W/m 14,1 C 15,4 C 13,3 km/h (3 Bft)
07/10/2012 00:40 15,4 C 92 % 1015,5 hPa 0,0 mm 10,1 km/h (2 Bft) S-SO 202 0 min 0 W/m 14,1 C 15,4 C 12,6 km/h (3 Bft)
07/10/2012 00:50 15,4 C 93 % 1015,4 hPa 0,0 mm 9,4 km/h (2 Bft) S-SO 202 0 min 0 W/m 14,3 C 15,4 C 14,0 km/h (3 Bft)
07/10/2012 01:00 15,4 C 92 % 1015,3 hPa 0,0 mm 12,2 km/h (2 Bft) SO 225 0 min 0 W/m 14,1 C 15,4 C 15,1 km/h (3 Bft)
07/10/2012 01:10 15,4 C 92 % 1015,1 hPa 0,0 mm 9,7 km/h (2 Bft) S 180 0 min 0 W/m 14,1 C 15,4 C 9,7 km/h (2 Bft)
07/10/2012 01:20 15,4 C 93 % 1015,1 hPa 0,0 mm 10,8 km/h (2 Bft) SO 225 0 min 0 W/m 14,3 C 15,4 C 10,8 km/h (2 Bft)
07/10/2012 01:30 15,4 C 93 % 1015,2 hPa 0,0 mm 8,6 km/h (2 Bft) S-SO 202 0 min 0 W/m 14,3 C 15,4 C 11,9 km/h (2 Bft)
07/10/2012 01:40 15,5 C 93 % 1015,0 hPa 0,0 mm 9,4 km/h (2 Bft) S-SO 202 0 min 0 W/m 14,4 C 15,5 C 14,4 km/h (3 Bft)
07/10/2012 01:50 15,5 C 93 % 1015,0 hPa 0,0 mm 9,4 km/h (2 Bft) O-SO 247 0 min 0 W/m 14,4 C 15,5 C 16,9 km/h (3 Bft)
07/10/2012 02:00 15,5 C 93 % 1015,0 hPa 0,1 mm 12,6 km/h (3 Bft) SO 225 0 min 0 W/m 14,4 C 15,5 C 17,3 km/h (3 Bft)
07/10/2012 02:10 15,5 C 93 % 1015,0 hPa 0,3 mm 10,1 km/h (2 Bft) SO 225 0 min 0 W/m 14,4 C 15,5 C 17,3 km/h (3 Bft)
07/10/2012 02:20 15,5 C 93 % 1015,0 hPa 0,2 mm 8,6 km/h (2 Bft) S-SO 202 0 min 0 W/m 14,4 C 15,5 C 11,9 km/h (2 Bft)
07/10/2012 02:30 15,5 C 93 % 1015,0 hPa 0,0 mm 8,6 km/h (2 Bft) SO 225 0 min 0 W/m 14,4 C 15,5 C 16,9 km/h (3 Bft)
07/10/2012 02:40 15,6 C 93 % 1014,9 hPa 0,1 mm 7,2 km/h (2 Bft) SO 225 0 min 0 W/m 14,5 C 15,6 C 10,8 km/h (2 Bft)
07/10/2012 02:50 15,6 C 93 % 1014,9 hPa 0,0 mm 9,0 km/h (2 Bft) SO 225 0 min 0 W/m 14,5 C 15,6 C 10,1 km/h (2 Bft)
07/10/2012 03:02 15,6 C 93 % 1014,8 hPa 0,0 mm 13,0 km/h (3 Bft) SO 225 0 min 0 W/m 14,5 C 15,6 C 16,9 km/h (3 Bft)
07/10/2012 03:10 15,6 C 94 % 1014,7 hPa 0,0 mm 9,0 km/h (2 Bft) SO 225 0 min 0 W/m 14,6 C 15,6 C 13,7 km/h (3 Bft)
07/10/2012 03:20 15,7 C 94 % 1014,8 hPa 0,1 mm 9,7 km/h (2 Bft) SO 225 0 min 0 W/m 14,7 C 15,7 C 15,5 km/h (3 Bft)
07/10/2012 03:30 15,8 C 94 % 1014,6 hPa 0,0 mm 10,1 km/h (2 Bft) S 180 0 min 0 W/m 14,8 C 15,8 C 15,1 km/h (3 Bft)
07/10/2012 03:40 15,9 C 94 % 1014,6 hPa 0,0 mm 9,0 km/h (2 Bft) SO 225 0 min 0 W/m 14,9 C 15,9 C 12,2 km/h (2 Bft)
07/10/2012 03:50 16,0 C 94 % 1014,5 hPa 0,0 mm 7,9 km/h (2 Bft) SO 225 0 min 0 W/m 15,0 C 16,0 C 12,2 km/h (2 Bft)
07/10/2012 04:00 16,1 C 94 % 1014,3 hPa 0,0 mm 10,4 km/h (2 Bft) SO 225 0 min 0 W/m 15,1 C 16,1 C 18,4 km/h (3 Bft)
07/10/2012 04:10 16,2 C 94 % 1014,4 hPa 0,0 mm 7,9 km/h (2 Bft) S-SO 202 0 min 0 W/m 15,2 C 16,2 C 8,6 km/h (2 Bft)
07/10/2012 04:20 16,2 C 94 % 1014,6 hPa 0,0 mm 4,7 km/h (1 Bft) SO 225 0 min 0 W/m 15,2 C 16,2 C 8,3 km/h (2 Bft)
07/10/2012 04:30 16,3 C 94 % 1014,6 hPa 0,0 mm 7,9 km/h (2 Bft) O-SO 247 0 min 0 W/m 15,3 C 16,3 C 14,8 km/h (3 Bft)
07/10/2012 04:40 16,3 C 94 % 1014,5 hPa 0,1 mm 6,8 km/h (2 Bft) SO 225 0 min 0 W/m 15,3 C 16,3 C 6,8 km/h (2 Bft)
07/10/2012 04:50 16,3 C 94 % 1014,6 hPa 0,0 mm 4,7 km/h (1 Bft) S-SO 202 0 min 0 W/m 15,3 C 16,3 C 10,4 km/h (2 Bft)
07/10/2012 05:00 16,4 C 94 % 1014,7 hPa 0,0 mm 6,5 km/h (2 Bft) O-SO 247 0 min 0 W/m 15,4 C 16,4 C 11,2 km/h (2 Bft)
07/10/2012 05:10 16,4 C 94 % 1014,9 hPa 0,1 mm 5,8 km/h (2 Bft) O-SO 247 0 min 0 W/m 15,4 C 16,4 C 12,2 km/h (2 Bft)
07/10/2012 05:20 16,4 C 94 % 1014,8 hPa 0,0 mm 6,5 km/h (2 Bft) O-SO 247 0 min 0 W/m 15,4 C 16,4 C 13,3 km/h (3 Bft)
07/10/2012 05:30 16,4 C 94 % 1014,9 hPa 0,0 mm 4,0 km/h (1 Bft) SO 225 0 min 0 W/m 15,4 C 16,4 C 10,1 km/h (2 Bft)
07/10/2012 05:40 16,3 C 94 % 1015,2 hPa 0,0 mm 2,9 km/h (1 Bft) SO 225 0 min 0 W/m 15,3 C 16,3 C 10,1 km/h (2 Bft)
07/10/2012 05:50 16,3 C 94 % 1015,4 hPa 0,0 mm 6,5 km/h (2 Bft) O-SO 247 0 min 0 W/m 15,3 C 16,3 C 11,5 km/h (2 Bft)
07/10/2012 06:00 16,2 C 94 % 1015,2 hPa 0,1 mm 4,3 km/h (1 Bft) S-SO 202 0 min 0 W/m 15,2 C 16,2 C 8,3 km/h (2 Bft)
07/10/2012 06:10 16,1 C 94 % 1015,2 hPa 0,0 mm 7,2 km/h (2 Bft) SO 225 0 min 0 W/m 15,1 C 16,1 C 10,1 km/h (2 Bft)
07/10/2012 06:20 16,0 C 94 % 1015,5 hPa 0,0 mm 5,4 km/h (2 Bft) SO 225 0 min 0 W/m 15,0 C 16,0 C 5,4 km/h (2 Bft)
07/10/2012 06:30 16,0 C 94 % 1015,5 hPa 0,0 mm 4,7 km/h (1 Bft) O-NO 292 0 min 0 W/m 15,0 C 16,0 C 13,0 km/h (3 Bft)
07/10/2012 06:40 15,9 C 94 % 1015,6 hPa 0,0 mm 2,2 km/h (1 Bft) SO 225 0 min 0 W/m 14,9 C 15,9 C 4,0 km/h (1 Bft)
07/10/2012 06:50 15,9 C 94 % 1015,6 hPa 0,0 mm 4,7 km/h (1 Bft) O-SO 247 0 min 0 W/m 14,9 C 15,9 C 13,3 km/h (3 Bft)
07/10/2012 07:00 15,9 C 94 % 1015,6 hPa 0,0 mm 4,0 km/h (1 Bft) S-SO 202 0 min 0 W/m 14,9 C 15,9 C 6,1 km/h (2 Bft)
07/10/2012 07:10 15,8 C 94 % 1015,9 hPa 0,0 mm 2,5 km/h (1 Bft) S-SO 202 0 min 0 W/m 14,8 C 15,8 C 4,0 km/h (1 Bft)
07/10/2012 07:20 15,8 C 94 % 1016,0 hPa 0,0 mm 3,2 km/h (1 Bft) S-SO 202 0 min 0 W/m 14,8 C 15,8 C 6,1 km/h (2 Bft)
07/10/2012 07:30 15,8 C 94 % 1016,1 hPa 0,0 mm 5,0 km/h (1 Bft) SO 225 0 min 0 W/m 14,8 C 15,8 C 7,9 km/h (2 Bft)
07/10/2012 07:40 15,8 C 95 % 1016,1 hPa 0,0 mm 0,4 km/h (0 Bft) O-SO 247 0 min 0 W/m 15,0 C 15,8 C 0,4 km/h (0 Bft)
07/10/2012 07:50 15,8 C 95 % 1016,2 hPa 0,0 mm 0,4 km/h (0 Bft) O-SO 247 0 min 0 W/m 15,0 C 15,8 C 0,4 km/h (0 Bft)
07/10/2012 08:00 15,8 C 95 % 1016,1 hPa 0,0 mm 3,6 km/h (1 Bft) SO 225 0 min 0 W/m 15,0 C 15,8 C 7,2 km/h (2 Bft)
07/10/2012 08:10 15,8 C 95 % 1016,2 hPa 0,0 mm 5,8 km/h (2 Bft) S-SO 202 0 min 0 W/m 15,0 C 15,8 C 5,8 km/h (2 Bft)
07/10/2012 08:20 15,8 C 95 % 1016,1 hPa 0,0 mm 4,0 km/h (1 Bft) S-SO 202 0 min 0 W/m 15,0 C 15,8 C 8,3 km/h (2 Bft)
07/10/2012 08:30 15,8 C 95 % 1016,3 hPa 0,0 mm 5,4 km/h (2 Bft) O-SO 247 0 min 0 W/m 15,0 C 15,8 C 7,6 km/h (2 Bft)
07/10/2012 08:40 15,8 C 95 % 1016,5 hPa 0,0 mm 3,2 km/h (1 Bft) SO 225 0 min 0 W/m 15,0 C 15,8 C 6,1 km/h (2 Bft)
07/10/2012 08:50 15,8 C 95 % 1016,8 hPa 0,0 mm 3,6 km/h (1 Bft) S-SO 202 0 min 0 W/m 15,0 C 15,8 C 4,3 km/h (1 Bft)
07/10/2012 09:00 15,8 C 95 % 1016,7 hPa 0,0 mm 0,7 km/h (0 Bft) SO 225 0 min 0 W/m 15,0 C 15,8 C 4,0 km/h (1 Bft)
07/10/2012 09:10 15,8 C 95 % 1017,1 hPa 0,0 mm 0,7 km/h (0 Bft) O-SO 247 0 min 0 W/m 15,0 C 15,8 C 3,6 km/h (1 Bft)
07/10/2012 09:20 15,8 C 95 % 1017,3 hPa 0,1 mm 2,5 km/h (1 Bft) SO 225 0 min 0 W/m 15,0 C 15,8 C 4,3 km/h (1 Bft)
07/10/2012 09:30 15,9 C 95 % 1017,2 hPa 0,0 mm 1,1 km/h (1 Bft) S-SO 202 0 min 0 W/m 15,1 C 15,9 C 3,6 km/h (1 Bft)
07/10/2012 09:40 15,9 C 95 % 1017,5 hPa 0,0 mm 1,1 km/h (1 Bft) SO 225 0 min 0 W/m 15,1 C 15,9 C 4,3 km/h (1 Bft)
07/10/2012 09:50 16,1 C 95 % 1017,7 hPa 0,0 mm 3,6 km/h (1 Bft) NO 315 0 min 0 W/m 15,3 C 16,1 C 9,7 km/h (2 Bft)
07/10/2012 10:00 16,2 C 95 % 1017,7 hPa 0,0 mm 2,2 km/h (1 Bft) SO 225 0 min 0 W/m 15,4 C 16,2 C 4,0 km/h (1 Bft)
07/10/2012 10:10 16,3 C 95 % 1017,7 hPa 0,0 mm 2,2 km/h (1 Bft) SO 225 0 min 0 W/m 15,5 C 16,3 C 2,9 km/h (1 Bft)
07/10/2012 10:20 16,4 C 95 % 1018,0 hPa 0,0 mm 2,5 km/h (1 Bft) SO 225 0 min 0 W/m 15,6 C 16,4 C 3,6 km/h (1 Bft)
07/10/2012 10:30 16,5 C 95 % 1018,1 hPa 0,0 mm 0,0 km/h (0 Bft) SO 225 0 min 0 W/m 15,7 C 16,5 C 0,0 km/h (0 Bft)
07/10/2012 10:40 16,6 C 95 % 1018,2 hPa 0,0 mm 0,7 km/h (0 Bft) S-SO 202 0 min 0 W/m 15,8 C 16,6 C 4,0 km/h (1 Bft)
07/10/2012 10:50 16,8 C 95 % 1018,4 hPa 0,0 mm 0,4 km/h (0 Bft) SO 225 0 min 0 W/m 16,0 C 16,8 C 4,0 km/h (1 Bft)
07/10/2012 11:00 16,8 C 95 % 1018,5 hPa 0,0 mm 0,0 km/h (0 Bft) S-SO 202 0 min 0 W/m 16,0 C 16,8 C 0,0 km/h (0 Bft)
07/10/2012 11:10 16,8 C 95 % 1018,6 hPa 0,0 mm 1,8 km/h (1 Bft) SO 225 0 min 0 W/m 16,0 C 16,8 C 4,3 km/h (1 Bft)
07/10/2012 11:20 16,9 C 95 % 1018,7 hPa 0,0 mm 0,0 km/h (0 Bft) SO 225 0 min 0 W/m 16,1 C 16,9 C 3,2 km/h (1 Bft)
07/10/2012 11:30 16,8 C 95 % 1018,7 hPa 0,0 mm 0,4 km/h (0 Bft) O-SO 247 0 min 0 W/m 16,0 C 16,8 C 0,4 km/h (0 Bft)
07/10/2012 11:40 16,9 C 95 % 1018,9 hPa 0,0 mm 0,0 km/h (0 Bft) O-SO 247 0 min 0 W/m 16,1 C 16,9 C 3,6 km/h (1 Bft)
07/10/2012 11:50 16,9 C 95 % 1019,0 hPa 0,0 mm 1,8 km/h (1 Bft) SO 225 0 min 0 W/m 16,1 C 16,9 C 3,6 km/h (1 Bft)
07/10/2012 12:00 16,9 C 95 % 1019,0 hPa 0,0 mm 1,4 km/h (1 Bft) O-SO 247 0 min 0 W/m 16,1 C 16,9 C 4,3 km/h (1 Bft)
07/10/2012 12:10 17,0 C 95 % 1019,0 hPa 0,0 mm 0,4 km/h (0 Bft) O-SO 247 0 min 0 W/m 16,2 C 17,0 C 3,2 km/h (1 Bft)
07/10/2012 12:20 17,2 C 95 % 1019,0 hPa 0,0 mm 0,4 km/h (0 Bft) NO 315 0 min 0 W/m 16,4 C 17,2 C 3,2 km/h (1 Bft)
07/10/2012 12:30 17,3 C 94 % 1018,9 hPa 0,0 mm 0,0 km/h (0 Bft) SO 225 0 min 0 W/m 16,3 C 17,3 C 2,9 km/h (1 Bft)
07/10/2012 12:40 17,5 C 95 % 1019,2 hPa 0,0 mm 2,5 km/h (1 Bft) O-NO 292 0 min 0 W/m 16,7 C 17,5 C 8,6 km/h (2 Bft)
07/10/2012 12:50 17,4 C 94 % 1019,0 hPa 0,0 mm 1,1 km/h (1 Bft) O 270 0 min 0 W/m 16,4 C 17,4 C 1,1 km/h (1 Bft)
07/10/2012 13:00 17,6 C 94 % 1019,1 hPa 0,0 mm 0,7 km/h (0 Bft) S-SO 202 0 min 0 W/m 16,6 C 17,6 C 4,3 km/h (1 Bft)
07/10/2012 13:10 17,6 C 94 % 1019,2 hPa 0,0 mm 0,0 km/h (0 Bft) O-SO 247 0 min 0 W/m 16,6 C 17,6 C 0,0 km/h (0 Bft)
07/10/2012 13:20 17,8 C 94 % 1019,1 hPa 0,0 mm 0,4 km/h (0 Bft) O-SO 247 0 min 0 W/m 16,8 C 17,8 C 3,2 km/h (1 Bft)
07/10/2012 13:30 17,8 C 94 % 1019,2 hPa 0,0 mm 0,4 km/h (0 Bft) N 360 0 min 0 W/m 16,8 C 17,8 C 0,4 km/h (0 Bft)
07/10/2012 13:40 17,9 C 93 % 1019,1 hPa 0,0 mm 4,0 km/h (1 Bft) O-SO 247 0 min 0 W/m 16,8 C 17,9 C 4,0 km/h (1 Bft)
07/10/2012 13:50 18,1 C 93 % 1019,0 hPa 0,0 mm 0,4 km/h (0 Bft) O-SO 247 0 min 0 W/m 16,9 C 18,1 C 2,9 km/h (1 Bft)
07/10/2012 14:00 18,1 C 92 % 1019,0 hPa 0,0 mm 1,1 km/h (1 Bft) S-SO 202 0 min 0 W/m 16,8 C 18,1 C 1,1 km/h (1 Bft)
07/10/2012 14:10 18,1 C 92 % 1019,0 hPa 0,0 mm 0,4 km/h (0 Bft) S-SO 202 0 min 0 W/m 16,8 C 18,1 C 3,2 km/h (1 Bft)
07/10/2012 14:20 18,1 C 92 % 1019,1 hPa 0,0 mm 1,8 km/h (1 Bft) SO 225 0 min 0 W/m 16,8 C 18,1 C 4,3 km/h (1 Bft)
07/10/2012 14:30 18,2 C 92 % 1019,2 hPa 0,0 mm 0,0 km/h (0 Bft) O-SO 247 0 min 0 W/m 16,9 C 18,2 C 0,0 km/h (0 Bft)
07/10/2012 14:40 18,4 C 92 % 1019,4 hPa 0,0 mm 0,0 km/h (0 Bft) N 360 0 min 0 W/m 17,1 C 18,4 C 0,0 km/h (0 Bft)
07/10/2012 14:50 18,4 C 91 % 1019,3 hPa 0,0 mm 0,7 km/h (0 Bft) N-NO 337 0 min 0 W/m 16,9 C 18,4 C 0,7 km/h (0 Bft)
07/10/2012 15:00 18,3 C 91 % 1019,3 hPa 0,0 mm 0,7 km/h (0 Bft) N-NO 337 0 min 0 W/m 16,8 C 18,3 C 4,0 km/h (1 Bft)
07/10/2012 15:10 18,3 C 91 % 1019,3 hPa 0,0 mm 0,0 km/h (0 Bft) N-NO 337 0 min 0 W/m 16,8 C 18,3 C 0,0 km/h (0 Bft)
07/10/2012 15:20 18,3 C 91 % 1019,5 hPa 0,0 mm 0,0 km/h (0 Bft) N-NO 337 0 min 0 W/m 16,8 C 18,3 C 0,0 km/h (0 Bft)
07/10/2012 15:30 18,3 C 91 % 1019,5 hPa 0,0 mm 0,0 km/h (0 Bft) N-NO 337 0 min 0 W/m 16,8 C 18,3 C 3,2 km/h (1 Bft)
07/10/2012 15:40 18,3 C 91 % 1019,5 hPa 0,0 mm 0,0 km/h (0 Bft) N-NO 337 0 min 0 W/m 16,8 C 18,3 C 0,0 km/h (0 Bft)
07/10/2012 15:50 18,3 C 91 % 1019,4 hPa 0,0 mm 0,0 km/h (0 Bft) N-NE 22 0 min 0 W/m 16,8 C 18,3 C 0,0 km/h (0 Bft)
07/10/2012 16:00 18,2 C 91 % 1019,4 hPa 0,0 mm 0,0 km/h (0 Bft) N-NE 22 0 min 0 W/m 16,7 C 18,2 C 0,0 km/h (0 Bft)
07/10/2012 16:10 18,2 C 91 % 1019,5 hPa 0,0 mm 0,0 km/h (0 Bft) N-NE 22 0 min 0 W/m 16,7 C 18,2 C 0,0 km/h (0 Bft)
07/10/2012 16:20 18,2 C 91 % 1019,5 hPa 0,0 mm 0,0 km/h (0 Bft) N-NE 22 0 min 0 W/m 16,7 C 18,2 C 0,0 km/h (0 Bft)
07/10/2012 16:30 18,2 C 91 % 1019,5 hPa 0,0 mm 0,0 km/h (0 Bft) N-NE 22 0 min 0 W/m 16,7 C 18,2 C 0,0 km/h (0 Bft)
07/10/2012 16:40 18,2 C 91 % 1019,4 hPa 0,0 mm 0,0 km/h (0 Bft) N-NE 22 0 min 0 W/m 16,7 C 18,2 C 0,0 km/h (0 Bft)
07/10/2012 16:50 18,2 C 91 % 1019,4 hPa 0,0 mm 0,0 km/h (0 Bft) N-NE 22 0 min 0 W/m 16,7 C 18,2 C 0,0 km/h (0 Bft)
07/10/2012 17:00 18,2 C 91 % 1019,5 hPa 0,0 mm 0,0 km/h (0 Bft) N-NE 22 0 min 0 W/m 16,7 C 18,2 C 0,0 km/h (0 Bft)
07/10/2012 17:10 18,2 C 91 % 1019,6 hPa 0,0 mm 0,0 km/h (0 Bft) N-NE 22 0 min 0 W/m 16,7 C 18,2 C 0,0 km/h (0 Bft)
07/10/2012 17:20 18,2 C 91 % 1019,4 hPa 0,0 mm 0,0 km/h (0 Bft) N-NE 22 0 min 0 W/m 16,7 C 18,2 C 0,0 km/h (0 Bft)
07/10/2012 17:30 18,2 C 91 % 1019,6 hPa 0,0 mm 0,0 km/h (0 Bft) N-NE 22 0 min 0 W/m 16,7 C 18,2 C 0,0 km/h (0 Bft)
07/10/2012 17:40 18,3 C 91 % 1019,4 hPa 0,0 mm 0,0 km/h (0 Bft) N-NE 22 0 min 0 W/m 16,8 C 18,3 C 0,0 km/h (0 Bft)
07/10/2012 17:50 18,3 C 91 % 1019,5 hPa 0,0 mm 0,0 km/h (0 Bft) N-NE 22 0 min 0 W/m 16,8 C 18,3 C 0,0 km/h (0 Bft)
07/10/2012 18:00 18,3 C 91 % 1019,4 hPa 0,0 mm 0,0 km/h (0 Bft) N-NE 22 0 min 0 W/m 16,8 C 18,3 C 0,0 km/h (0 Bft)
07/10/2012 18:10 18,3 C 91 % 1019,4 hPa 0,0 mm 0,0 km/h (0 Bft) N-NE 22 0 min 0 W/m 16,8 C 18,3 C 0,0 km/h (0 Bft)
07/10/2012 18:20 18,3 C 91 % 1019,5 hPa 0,0 mm 0,0 km/h (0 Bft) N-NE 22 0 min 0 W/m 16,8 C 18,3 C 0,0 km/h (0 Bft)
07/10/2012 18:30 18,2 C 91 % 1019,5 hPa 0,0 mm 0,0 km/h (0 Bft) N-NE 22 0 min 0 W/m 16,7 C 18,2 C 3,2 km/h (1 Bft)
07/10/2012 18:40 18,1 C 91 % 1019,7 hPa 0,0 mm 1,1 km/h (1 Bft) N-NE 22 0 min 0 W/m 16,6 C 18,1 C 3,6 km/h (1 Bft)
07/10/2012 18:50 17,9 C 91 % 1019,8 hPa 0,0 mm 0,0 km/h (0 Bft) N-NE 22 0 min 0 W/m 16,4 C 17,9 C 0,0 km/h (0 Bft)
07/10/2012 19:00 17,9 C 91 % 1019,6 hPa 0,0 mm 0,0 km/h (0 Bft) N-NE 22 0 min 0 W/m 16,4 C 17,9 C 0,0 km/h (0 Bft)
07/10/2012 19:10 17,8 C 91 % 1019,7 hPa 0,0 mm 0,0 km/h (0 Bft) N-NE 22 0 min 0 W/m 16,3 C 17,8 C 0,0 km/h (0 Bft)
07/10/2012 19:20 17,7 C 91 % 1019,9 hPa 0,0 mm 0,0 km/h (0 Bft) N-NE 22 0 min 0 W/m 16,2 C 17,7 C 0,0 km/h (0 Bft)
07/10/2012 19:30 17,6 C 91 % 1019,8 hPa 0,0 mm 0,0 km/h (0 Bft) N-NE 22 0 min 0 W/m 16,1 C 17,6 C 0,0 km/h (0 Bft)
07/10/2012 19:40 17,5 C 92 % 1019,8 hPa 0,0 mm 0,0 km/h (0 Bft) N-NE 22 0 min 0 W/m 16,2 C 17,5 C 0,0 km/h (0 Bft)
07/10/2012 19:50 17,4 C 92 % 1019,8 hPa 0,1 mm 0,0 km/h (0 Bft) N-NE 22 0 min 0 W/m 16,1 C 17,4 C 0,0 km/h (0 Bft)
07/10/2012 20:00 17,4 C 92 % 1019,8 hPa 0,0 mm 0,0 km/h (0 Bft) O-SO 247 0 min 0 W/m 16,1 C 17,4 C 0,0 km/h (0 Bft)
07/10/2012 20:10 17,3 C 92 % 1019,9 hPa 0,1 mm 0,0 km/h (0 Bft) O-SO 247 0 min 0 W/m 16,0 C 17,3 C 0,0 km/h (0 Bft)
07/10/2012 20:20 17,3 C 92 % 1019,8 hPa 0,0 mm 0,0 km/h (0 Bft) O-SO 247 0 min 0 W/m 16,0 C 17,3 C 0,0 km/h (0 Bft)
07/10/2012 20:30 17,2 C 92 % 1020,0 hPa 0,1 mm 0,0 km/h (0 Bft) O-SO 247 0 min 0 W/m 15,9 C 17,2 C 0,0 km/h (0 Bft)
07/10/2012 20:40 17,2 C 92 % 1020,2 hPa 0,0 mm 0,0 km/h (0 Bft) O-SO 247 0 min 0 W/m 15,9 C 17,2 C 0,0 km/h (0 Bft)
07/10/2012 20:50 17,1 C 92 % 1020,2 hPa 0,0 mm 0,0 km/h (0 Bft) O-SO 247 0 min 0 W/m 15,8 C 17,1 C 0,0 km/h (0 Bft)
07/10/2012 21:00 17,1 C 92 % 1020,0 hPa 0,0 mm 0,0 km/h (0 Bft) O-SO 247 0 min 0 W/m 15,8 C 17,1 C 0,0 km/h (0 Bft)
07/10/2012 21:10 17,1 C 92 % 1019,9 hPa 0,0 mm 0,0 km/h (0 Bft) O-SO 247 0 min 0 W/m 15,8 C 17,1 C 0,0 km/h (0 Bft)
07/10/2012 21:20 16,9 C 92 % 1020,1 hPa 0,0 mm 0,0 km/h (0 Bft) O-SO 247 0 min 0 W/m 15,6 C 16,9 C 0,0 km/h (0 Bft)
07/10/2012 21:30 16,9 C 92 % 1020,2 hPa 0,0 mm 0,0 km/h (0 Bft) O-SO 247 0 min 0 W/m 15,6 C 16,9 C 0,0 km/h (0 Bft)
07/10/2012 21:40 16,9 C 93 % 1020,3 hPa 0,0 mm 0,0 km/h (0 Bft) O-SO 247 0 min 0 W/m 15,8 C 16,9 C 0,0 km/h (0 Bft)
07/10/2012 21:50 16,9 C 93 % 1020,3 hPa 0,0 mm 0,0 km/h (0 Bft) O-SO 247 0 min 0 W/m 15,8 C 16,9 C 0,0 km/h (0 Bft)
07/10/2012 22:00 16,8 C 93 % 1020,4 hPa 0,0 mm 0,0 km/h (0 Bft) O-SO 247 0 min 0 W/m 15,7 C 16,8 C 0,0 km/h (0 Bft)
07/10/2012 22:10 16,8 C 93 % 1020,4 hPa 0,0 mm 0,0 km/h (0 Bft) O-SO 247 0 min 0 W/m 15,7 C 16,8 C 0,0 km/h (0 Bft)
07/10/2012 22:20 16,8 C 93 % 1020,5 hPa 0,0 mm 0,0 km/h (0 Bft) O-SO 247 0 min 0 W/m 15,7 C 16,8 C 0,0 km/h (0 Bft)
07/10/2012 22:30 16,8 C 93 % 1020,5 hPa 0,0 mm 0,0 km/h (0 Bft) O-SO 247 0 min 0 W/m 15,7 C 16,8 C 0,0 km/h (0 Bft)
07/10/2012 22:40 16,7 C 93 % 1020,3 hPa 0,0 mm 0,0 km/h (0 Bft) O-SO 247 0 min 0 W/m 15,6 C 16,7 C 0,0 km/h (0 Bft)
07/10/2012 22:50 16,6 C 93 % 1020,3 hPa 0,0 mm 0,0 km/h (0 Bft) O-SO 247 0 min 0 W/m 15,5 C 16,6 C 0,0 km/h (0 Bft)
07/10/2012 23:00 16,6 C 93 % 1020,4 hPa 0,0 mm 0,0 km/h (0 Bft) O-SO 247 0 min 0 W/m 15,5 C 16,6 C 0,0 km/h (0 Bft)
07/10/2012 23:10 16,6 C 93 % 1020,5 hPa 0,0 mm 0,0 km/h (0 Bft) O-SO 247 0 min 0 W/m 15,5 C 16,6 C 0,0 km/h (0 Bft)
07/10/2012 23:20 16,6 C 93 % 1020,4 hPa 0,1 mm 0,0 km/h (0 Bft) O-SO 247 0 min 0 W/m 15,5 C 16,6 C 0,0 km/h (0 Bft)
07/10/2012 23:30 16,6 C 93 % 1020,2 hPa 0,0 mm 0,0 km/h (0 Bft) O-SO 247 0 min 0 W/m 15,5 C 16,6 C 0,0 km/h (0 Bft)
07/10/2012 23:40 16,6 C 93 % 1020,0 hPa 0,0 mm 0,0 km/h (0 Bft) O-SO 247 0 min 0 W/m 15,5 C 16,6 C 2,9 km/h (1 Bft)
07/10/2012 23:50 16,5 C 93 % 1019,8 hPa 0,1 mm 0,0 km/h (0 Bft) O-SO 247 0 min 0 W/m 15,4 C 16,5 C 0,0 km/h (0 Bft)
_ Min-Heure 00:00 19:30 04:00 - 23:50 - - - - 00:00 00:00 23:50
Minimum _ 15,2 C 91 % 1014,3 hPa - 0,0 km/h (0 Bft) - - - - 13,9 C 15,2 C 0,0 km/h (0 Bft)
_ Max-Heure 14:50 12:40 23:10 02:10 00:30 - - 23:50 23:50 14:40 14:50 04:00
Maximum _ 18,4 C 95 % 1020,5 hPa 0,3 mm 13,3 km/h
SO (3 Bft)
- - 0 min 0 W/m 17,1 C 18,4 C 18,4 km/h
SO (3 Bft)
Moyenne _ 16,8 C 93 % 1017,8 hPa #1,9 mm 2,9 km/h (1 Bft) O-SO - #0 min. 0 W/m 15,7 C 16,8 C 4,9 km/h (1 Bft)
Saint Bonnet de Bellac- Haute Vienne - France